This demonstration page uses our WeatherBlox Daily Observations layout. Learn more.

Left ArrowRight Arrow

Hourly Observations for September 29, 2022

Temp ( °F °C ) Dew Point ( °F °C ) Humidity (%) Winds ( mph kmh ) Pressure ( in mb ) Visibility ( mi km ) Precip ( " mm )
12:15 am 00:15 Clear 54 12.2 40 4.2 58 58 SE 10 17 30.28 1026 10 16 0.00 0.00
12:35 am 00:35 Clear 53 11.8 39 4 59 59 SE 9 15 30.29 1026 10 16 0.00 0.00
12:55 am 00:55 Clear 53 11.5 39 3.9 60 60 SE 10 17 30.29 1026 10 16 0.00 0.00
1:15 am 01:15 Clear 52 11.2 39 3.7 60 60 SE 9 15 30.29 1026 10 16 0.00 0.00
1:35 am 01:35 Clear 51 10.6 39 3.7 62 62 SE 7 11 30.30 1026 10 16 0.00 0.00
1:55 am 01:55 Clear 50 10.1 39 3.7 64 64 SSE 8 13 30.30 1026 10 16 0.00 0.00
2:15 am 02:15 Clear 50 10 38 3.5 64 64 SSE 6 9 30.30 1026 10 16 0.00 0.00
2:35 am 02:35 Clear 50 9.8 38 3.4 64 64 SSE 8 13 30.31 1026 10 16 0.00 0.00
2:55 am 02:55 Clear 49 9.7 38 3.5 65 65 SSE 8 13 30.31 1026 10 16 0.00 0.00
3:15 am 03:15 Clear 49 9.7 38 3.1 63 63 SSE 8 13 30.30 1026 10 16 0.00 0.00
3:35 am 03:35 Clear 49 9.7 37 2.7 62 62 SSE 9 15 30.30 1026 10 16 0.00 0.00
3:55 am 03:55 Clear 50 9.8 37 2.5 60 60 SSE 10 17 30.29 1026 10 16 0.00 0.00
4:15 am 04:15 Clear 50 9.9 36 2.3 59 59 SSE 12 19 30.28 1026 10 16 0.00 0.00
4:35 am 04:35 Clear 50 9.8 36 2.2 59 59 SSE 9 15 30.27 1025 10 16 0.00 0.00
4:55 am 04:55 Clear 50 9.8 36 2.1 59 59 SSE 10 17 30.27 1025 10 16 0.00 0.00
5:15 am 05:15 Clear 49 9.6 36 2.1 59 59 SSE 12 19 30.27 1025 10 16 0.00 0.00
5:35 am 05:35 Clear 49 9.5 36 2.1 60 60 SSE 9 15 30.28 1025 10 16 0.00 0.00
5:55 am 05:55 Clear 49 9.2 36 2.1 61 61 SSE 9 15 30.28 1025 10 16 0.00 0.00
6:15 am 06:15 Clear 48 9 36 2.2 62 62 SSE 8 13 30.28 1025 10 16 0.00 0.00
6:35 am 06:35 Clear 48 8.7 36 2.1 63 63 SE 8 13 30.27 1025 10 16 0.00 0.00
6:55 am 06:55 Clear 47 8.6 36 2.2 64 64 SSE 8 13 30.28 1025 10 16 0.00 0.00
7:15 am 07:15 Clear 47 8.1 36 2.3 67 67 SSE 9 15 30.28 1025 10 16 0.00 0.00
7:35 am 07:35 Sunny 46 8 36 2.3 67 67 SSE 8 13 30.28 1025 10 16 0.00 0.00
7:55 am 07:55 Sunny 46 7.9 36 2.3 68 68 SSE 9 15 30.28 1025 10 16 0.00 0.00
8:15 am 08:15 Sunny 47 8.5 37 2.5 66 66 SSE 8 13 30.28 1025 10 16 0.00 0.00
8:35 am 08:35 Sunny 49 9.4 37 2.5 62 62 SSE 10 17 30.26 1025 10 16 0.00 0.00
8:55 am 08:55 Sunny 51 10.4 37 2.5 58 58 SSE 14 22 30.24 1024 10 16 0.00 0.00
9:15 am 09:15 Sunny 53 11.5 37 2.6 54 54 SSE 16 26 30.22 1023 10 16 0.00 0.00
9:35 am 09:35 Sunny 55 12.7 37 3 52 52 S 15 24 30.21 1023 10 16 0.00 0.00
9:55 am 09:55 Sunny 57 14 38 3.5 49 49 S 14 22 30.21 1023 10 16 0.00 0.00
10:15 am 10:15 Sunny 58 14.7 39 3.9 48 48 S 16 26 30.20 1023 10 16 0.00 0.00
10:35 am 10:35 Sunny 60 15.7 40 4.4 47 47 S 17 28 30.18 1022 10 16 0.00 0.00
10:55 am 10:55 Sunny 62 16.5 41 4.8 46 46 S 15 24 30.18 1022 10 16 0.00 0.00
11:15 am 11:15 Sunny 64 17.5 41 5.2 44 44 S 12 19 30.17 1022 10 16 0.00 0.00
11:35 am 11:35 Sunny 65 18.6 42 5.8 43 43 S 13 20 30.16 1021 10 16 0.00 0.00
11:55 am 11:55 Sunny 66 19 43 5.9 42 42 SSE 14 22 30.13 1020 10 16 0.00 0.00
12:15 pm 12:15 Sunny 68 19.8 43 6.2 41 41 SSE 15 24 30.12 1020 10 16 0.00 0.00
12:35 pm 12:35 Sunny 70 20.9 44 6.6 39 39 SSE 14 22 30.10 1019 10 16 0.00 0.00
12:55 pm 12:55 Sunny 71 21.6 44 6.7 38 38 SSE 16 26 30.08 1019 10 16 0.00 0.00
1:15 pm 13:15 Sunny 72 22.2 44 6.9 37 37 S 15 24 30.07 1018 10 16 0.00 0.00
1:35 pm 13:35 Sunny 74 23.5 46 7.5 36 36 SSE 17 28 30.05 1018 10 16 0.00 0.00
1:55 pm 13:55 Sunny 75 23.7 45 7.4 35 35 SSE 20 31 30.04 1017 10 16 0.00 0.00
2:15 pm 14:15 Sunny 76 24.4 46 7.6 34 34 SSE 18 30 30.01 1016 10 16 0.00 0.00
2:35 pm 14:35 Sunny 76 24.6 46 7.9 34 34 SSE 21 33 30.00 1016 10 16 0.00 0.00
2:55 pm 14:55 Sunny 78 25.3 47 8.1 33 33 SSE 22 35 29.98 1015 10 16 0.00 0.00
3:15 pm 15:15 Sunny 77 25.2 46 8 33 33 SSE 21 33 29.98 1015 10 16 0.00 0.00
3:35 pm 15:35 Sunny 78 25.4 47 8.2 34 34 SSE 17 28 29.97 1015 10 16 0.00 0.00
3:55 pm 15:55 Sunny 78 25.5 47 8.2 33 33 S 20 31 29.96 1015 10 16 0.00 0.00
4:15 pm 16:15 Sunny 77 25.2 47 8.3 34 34 SSE 18 30 29.95 1014 10 16 0.00 0.00
4:35 pm 16:35 Sunny 78 25.5 47 8.5 34 34 SSE 20 31 29.95 1014 10 16 0.00 0.00
4:55 pm 16:55 Sunny 77 25.2 47 8.3 34 34 SSE 20 31 29.95 1014 10 16 0.00 0.00
5:15 pm 17:15 Sunny 78 25.3 47 8.5 34 34 SE 22 35 29.94 1014 10 16 0.00 0.00
5:35 pm 17:35 Sunny 77 25 47 8.5 35 35 SE 17 28 29.94 1014 10 16 0.00 0.00
5:55 pm 17:55 Sunny 76 24.5 48 8.7 37 37 SE 20 31 29.94 1014 10 16 0.00 0.00
6:15 pm 18:15 Sunny 75 24 48 8.7 38 38 SSE 20 31 29.94 1014 10 16 0.00 0.00
6:35 pm 18:35 Sunny 73 22.9 48 8.9 41 41 SSE 15 24 29.95 1014 10 16 0.00 0.00
6:55 pm 18:55 Sunny 72 22 48 8.9 43 43 SSE 12 19 29.97 1015 10 16 0.00 0.00
7:15 pm 19:15 Sunny 69 20.5 49 9.2 48 48 SE 8 13 29.98 1015 10 16 0.00 0.00
7:35 pm 19:35 Clear 67 19.7 48 9.1 50 50 SE 10 17 29.99 1016 10 16 0.00 0.00
7:55 pm 19:55 Clear 66 19.1 48 9 52 52 SE 10 17 29.98 1015 10 16 0.00 0.00
8:15 pm 20:15 Clear 65 18.5 48 8.9 54 54 SE 9 15 30.00 1016 10 16 0.00 0.00
8:35 pm 20:35 Clear 64 18 48 8.9 55 55 SE 12 19 30.00 1016 10 16 0.00 0.00
8:55 pm 20:55 Clear 64 17.7 48 8.7 56 56 SE 12 19 30.01 1016 10 16 0.00 0.00
9:15 pm 21:15 Clear 64 17.7 47 8.4 54 54 SSE 12 19 30.01 1016 10 16 0.00 0.00
9:35 pm 21:35 Clear 64 17.6 47 8.2 54 54 SSE 12 19 30.01 1016 10 16 0.00 0.00
9:55 pm 21:55 Clear 64 18 46 8 52 52 SSE 14 22 30.00 1016 10 16 0.00 0.00
10:15 pm 22:15 Clear 64 18 46 7.8 51 51 SSE 16 26 30.00 1016 10 16 0.00 0.00
10:35 pm 22:35 Clear 64 17.8 46 7.5 51 51 SSE 17 28 30.01 1016 10 16 0.00 0.00
10:55 pm 22:55 Clear 64 17.7 45 7.4 51 51 SSE 15 24 30.01 1016 10 16 0.00 0.00
11:15 pm 23:15 Clear 63 17.2 45 7.3 52 52 SSE 14 22 30.01 1016 10 16 0.00 0.00
11:35 pm 23:35 Clear 62 16.9 45 7.3 53 53 SSE 14 22 30.01 1016 10 16 0.00 0.00
11:55 pm 23:55 Clear 62 16.5 45 7.3 54 54 SSE 13 20 30.02 1016 10 16 0.00 0.00

Powered by AerisWeather